Regional Weather Roundup
Issued by NWS

Home | Current Version | Previous Version | Text Only | Print | Product List | Glossary Off
Versions: 1 2 3 4 5 6 7 8 9 10 11 12 13 14 15 16 17 18 19 20 21 22 23 24 25 26 27 28 29 30 31 32 33 34 35 36 37 38 39 40 41 42 43 44 45 46 47 48 49 50

000
ASUS43 KDMX 252203
RWRIA

WEATHER ROUNDUP FOR IOWA
NATIONAL WEATHER SERVICE DES MOINES IA
500 PM CDT WED MAY 25 2016

NOTE: "FAIR" INDICATES FEW OR NO CLOUDS BELOW 12,000 FEET WITH NO
SIGNIFICANT WEATHER AND/OR OBSTRUCTIONS TO VISIBILITY.

* - THESE STATIONS ARE NOT NWS STATIONS...THUS NOT UNDER NWS
QUALITY CONTROL.  THEY ALSO DO NOT REPORT WEATHER SUCH
AS PRECIPITATION OR FOG.

IAZ001>003-012>014-020>022-031>034-043>046-252300-
   NORTHWEST IOWA

CITY           SKY/WX    TMP DP  RH WIND       PRES   REMARKS
CARROLL *      MOSUNNY   79  64  61 SW15G24   29.84S HX  81
CHEROKEE *     MOSUNNY   80  62  55 SW7       29.81F HX  81
DENISON *      PTSUNNY   79  63  57 S12G18    29.82S HX  80
LE MARS *      MOSUNNY   81  63  54 SW7       29.80F HX  82
ORANGE CITY *  MOSUNNY   81  63  54 S8        29.81S HX  82
SHELDON *      SUNNY     81  61  50 SW12      29.79F HX  81
SIOUX CITY     MOSUNNY   83  63  50 SW9       29.79F HX  84
SPENCER        MOSUNNY   79  58  48 SW13      29.81F HX  80
STORM LAKE *   MOSUNNY   81  57  44 SW17G26   29.83S HX  81
$$

IAZ055>058-069>071-079>083-090>094-252300-
   SOUTHWEST IOWA

CITY           SKY/WX    TMP DP  RH WIND       PRES   REMARKS
ATLANTIC *     CLOUDY    77  64  65 S12       29.84S
AUDUBON *        N/A     77  64  65 SW6       29.86S
CLARINDA *       N/A     79  66  65 MISG      29.86S HX  81
COUNCIL BLFS * CLOUDY    75  66  73 SW13      29.84F
CRESTON *      PTSUNNY   79  64  61 S15       29.87S HX  81
HARLAN  *      CLOUDY    77  64  65 SW9       29.87F
LAMONI         SUNNY     80  64  58 SW14G24   29.86F HX  82
RED OAK *      CLOUDY    77  66  69 SW15      29.85S
SHENANDOAH *   CLOUDY    79  68  69 SW13G22   29.85S HX  81
$$

IAZ047>049-059>061-072>074-084-252300-
   CENTRAL IOWA

CITY           SKY/WX    TMP DP  RH WIND       PRES   REMARKS
AMES           SUNNY     78  62  57 SW12      29.85S HX  80
ANKENY *       MOSUNNY   79  64  61 S8        29.85F HX  81
BOONE *        SUNNY     79  64  61 S8G15     29.85R HX  81
CHARITON *     MOSUNNY   81  63  54 SW8G17    29.87S HX  82
DES MOINES     MOSUNNY   80  62  54 S8        29.86S HX  81
GRINNELL*      MOSUNNY   79  61  53 S12       29.88S HX  80
KNOXVILLE *    PTSUNNY   81  61  50 VRB7      29.85F HX  81
MARSHALLTOWN   MOSUNNY   79  61  53 S13       29.85S HX  80
NEWTON *       SUNNY     79  61  53 SW12G18   29.86F HX  80
PELLA *        SUNNY     83  62  48 CALM      29.87F HX  83
PERRY *          N/A     79  64  59 SW8       29.86R HX  81
$$

IAZ004>006-015-016-023>025-035-036-252300-
   NORTH CENTRAL IOWA

CITY           SKY/WX    TMP DP  RH WIND       PRES   REMARKS
ALGONA *       MOSUNNY   81  57  44 W16       29.82S HX  81
CLARION *      CLOUDY    79  66  65 SW10      29.83F HX  81
ESTHERVILLE    MOSUNNY   82  57  42 W16G25    29.81S HX  82
FORT DODGE *   MOSUNNY   81  63  54 SW9G16    29.83F HX  82
MASON CITY     CLOUDY    79  65  62 SW10      29.84F HX  81
FOREST CITY *  MOSUNNY   77  63  61 SW8G17    29.82F
WEBSTER CITY * CLOUDY    79  63  57 SW10G16   29.82S HX  80
IOWA FALLS *     N/A     81  64  57 SW12      29.85F HX  82
$$

IAZ007>011-017>019-026>030-037>042-050>054-066-252300-
   NORTHEAST IOWA

CITY           SKY/WX    TMP DP  RH WIND       PRES   REMARKS
CEDAR RAPIDS   CLOUDY    80  63  55 S16       29.85F HX  81
CHARLES CITY * PTSUNNY   79  64  61 SW13      29.85R HX  81
CLINTON *      SUNNY     84  60  44 SW17      29.86F HX  84
DECORAH *      MOSUNNY   77  63  61 SW12G20   29.84F
DUBUQUE        PTSUNNY   80  62  54 SW17      29.85F HX  81
MONTICELLO *   CLOUDY    81  63  54 SW15      29.85S HX  82
OELWEIN *      PTSUNNY   81  61  50 SW20      29.85F HX  81
WATERLOO       PTSUNNY   81  60  48 SW14      29.83F HX  82
$$

IAZ064-065-067-068-078-252300-
   EAST CENTRAL IOWA

CITY           SKY/WX    TMP DP  RH WIND       PRES   REMARKS
DAVENPORT      MOSUNNY   84  56  38 SW13      29.87F HX  83
IOWA CITY      PTSUNNY   82  58  43 S13       29.87S HX  82
MT. PLEASANT * CLOUDY    84  61  45 S14G20    29.87S HX  84
MUSCATINE *    CLOUDY    82  61  47 SW10      29.87R HX  83
QUAD CITIES    MOSUNNY   86  58  38 SW14G21   29.85F HX  85
$$

IAZ062-063-075>077-085>089-095>099-252300-
   SOUTHEAST IOWA

CITY           SKY/WX    TMP DP  RH WIND       PRES   REMARKS
BURLINGTON     CLOUDY    82  63  52 S15       29.87S HX  83
FAIRFIELD *      N/A    N/A N/A N/A MISG        N/A
FORT MADISON * PTSUNNY   82  64  54 S10       29.88S HX  84
KEOKUK *       CLOUDY    82  66  57 SW10G17   29.86S HX  85
OSKALOOSA *      N/A     82  61  47 S13       29.88R HX  83
OTTUMWA        SUNNY     82  61  48 S14       29.87S HX  83
WASHINGTON *   SUNNY     82  72  69 W10       29.89S HX  87
$$

ABBREVIATIONS USED IN REMARKS
   TC - TEMPERATURES IN CELSIUS
  WCI - WIND CHILL INDEX
   HX - HEAT INDEX
  VSB - VISIBILITY
$$





USA.gov is the U.S. government's official web portal to all federal, state and local government web resources and services.